When you browse on this site, cookies collect data to enhance your experience and personalize the content and advertising you see.
Visit our Privacy Policy to learn more. By continuing to use the site, you agree to this use of cookies and data.
  • In Portugal
  • List of Countries
  • For 7 days
  • Water Temperature
  • Satellite Maps
  • Weather Map
  • Weather Widgets
  • user-avatar
    Login

    Hourly Weather Sagaleipie

    Today, 18 November, Sunday

    Time Temperature Precipitation Wind Pressure Humidity
    00:00 +23°C° 0.1 mm 1 mps 723 mmHg 98%
    01:00 +21°C° 0.1 mm 0 mps 723 mmHg 98%
    02:00 +21°C° 0.1 mm 0 mps 723 mmHg 99%
    03:00 +21°C° 0.1 mm 0 mps 723 mmHg 99%
    04:00 +21°C° 0.1 mm 0 mps 723 mmHg 99%
    05:00 +21°C° 0.1 mm 0 mps 723 mmHg 99%
    06:00 +22°C° 0 mm 0 mps 723 mmHg 94%
    07:00 +23°C° 0 mm 0 mps 723 mmHg 90%
    08:00 +25°C° 0 mm 0 mps 724 mmHg 85%
    09:00 +27°C° 0.1 mm 0 mps 724 mmHg 75%
    10:00 +29°C° 0.1 mm 0 mps 724 mmHg 64%
    11:00 +31°C° 0.1 mm 0 mps 723 mmHg 54%
    12:00 +31°C° 0.5 mm 0 mps 723 mmHg 54%
    13:00 +31°C° 0.5 mm 0 mps 722 mmHg 54%
    14:00 +31°C° 0.5 mm 0 mps 721 mmHg 54%
    15:00 +30°C° 0.2 mm 0 mps 721 mmHg 61%
    16:00 +28°C° 0.2 mm 0 mps 721 mmHg 67%
    17:00 +26°C° 0.2 mm 0 mps 721 mmHg 74%
    18:00 +25°C° 0.9 mm 0 mps 722 mmHg 79%
    19:00 +24°C° 0.9 mm 0 mps 722 mmHg 84%
    20:00 +23°C° 0.9 mm 0 mps 723 mmHg 89%
    21:00 +23°C° 0.2 mm 0 mps 723 mmHg 91%
    22:00 +22°C° 0.2 mm 0 mps 723 mmHg 92%
    23:00 +24°C° 0.2 mm 1 mps 723 mmHg 94%

    Tomorrow, 19 November, Monday

    Time Temperature Precipitation Wind Pressure Humidity
    00:00 +22°C° 0.1 mm 0 mps 723 mmHg 95%
    01:00 +22°C° 0.1 mm 0 mps 723 mmHg 96%
    02:00 +22°C° 0.1 mm 0 mps 722 mmHg 97%
    03:00 +21°C° 0.2 mm 0 mps 722 mmHg 97%
    04:00 +21°C° 0.2 mm 0 mps 722 mmHg 98%
    05:00 +21°C° 0.2 mm 0 mps 722 mmHg 98%
    06:00 +23°C° 0 mm 0 mps 723 mmHg 93%
    07:00 +24°C° 0 mm 0 mps 723 mmHg 88%
    08:00 +25°C° 0 mm 0 mps 724 mmHg 83%
    09:00 +27°C° 0.4 mm 0 mps 724 mmHg 75%
    10:00 +29°C° 0.4 mm 0 mps 724 mmHg 66%
    11:00 +31°C° 0.4 mm 0 mps 724 mmHg 58%
    12:00 +30°C° 1.2 mm 0 mps 723 mmHg 64%
    13:00 +29°C° 1.2 mm 0 mps 722 mmHg 70%
    14:00 +28°C° 1.2 mm 0 mps 721 mmHg 76%
    15:00 +27°C° 0.7 mm 0 mps 721 mmHg 82%
    16:00 +25°C° 0.7 mm 0 mps 721 mmHg 87%
    17:00 +24°C° 0.7 mm 0 mps 721 mmHg 93%
    18:00 +23°C° 0.5 mm 0 mps 722 mmHg 93%
    19:00 +23°C° 0.5 mm 0 mps 723 mmHg 94%
    20:00 +22°C° 0.5 mm 0 mps 723 mmHg 94%
    21:00 +22°C° 0.1 mm 0 mps 723 mmHg 94%
    22:00 +22°C° 0.1 mm 0 mps 723 mmHg 95%
    23:00 +22°C° 0.1 mm 0 mps 723 mmHg 95%

    Day after tomorrow, 20 November, Tuesday

    Time Temperature Precipitation Wind Pressure Humidity
    00:00 +21°C° 0.5 mm 0 mps 723 mmHg 96%
    01:00 +21°C° 0.5 mm 0 mps 722 mmHg 97%
    02:00 +21°C° 0.5 mm 0 mps 722 mmHg 97%
    03:00 +21°C° 0.7 mm 0 mps 722 mmHg 97%
    04:00 +21°C° 0.7 mm 0 mps 722 mmHg 97%
    05:00 +21°C° 0.7 mm 0 mps 723 mmHg 97%
    06:00 +24°C° 0 mm 1 mps 723 mmHg 92%
    07:00 +25°C° 0 mm 1 mps 724 mmHg 87%
    08:00 +26°C° 0 mm 1 mps 724 mmHg 81%
    09:00 +28°C° 0 mm 1 mps 724 mmHg 69%
    10:00 +30°C° 0 mm 2 mps 724 mmHg 56%
    11:00 +32°C° 0 mm 2 mps 724 mmHg 44%
    12:00 +32°C° 0 mm 2 mps 723 mmHg 43%
    13:00 +32°C° 0 mm 2 mps 723 mmHg 43%
    14:00 +34°C° 0 mm 2 mps 722 mmHg 42%
    15:00 +31°C° 0 mm 1 mps 722 mmHg 50%
    16:00 +29°C° 0 mm 1 mps 722 mmHg 58%
    17:00 +27°C° 0 mm 1 mps 722 mmHg 66%
    18:00 +27°C° 0.1 mm 1 mps 722 mmHg 68%
    19:00 +24°C° 0.1 mm 0 mps 723 mmHg 70%
    20:00 +23°C° 0.1 mm 0 mps 724 mmHg 72%
    21:00 +23°C° 0.1 mm 0 mps 724 mmHg 75%
    22:00 +22°C° 0.1 mm 0 mps 724 mmHg 78%
    23:00 +21°C° 0.1 mm 0 mps 724 mmHg 82%

    21 November, Wednesday

    Time Temperature Precipitation Wind Pressure Humidity
    00:00 +21°C° 0 mm 0 mps 723 mmHg 82%
    01:00 +21°C° 0 mm 0 mps 723 mmHg 83%
    02:00 +21°C° 0 mm 0 mps 722 mmHg 84%
    03:00 +21°C° 0 mm 0 mps 722 mmHg 84%
    04:00 +21°C° 0 mm 0 mps 722 mmHg 83%
    05:00 +21°C° 0 mm 0 mps 723 mmHg 83%
    06:00 +23°C° 0 mm 0 mps 723 mmHg 76%
    07:00 +24°C° 0 mm 0 mps 724 mmHg 70%
    08:00 +26°C° 0 mm 0 mps 725 mmHg 64%
    09:00 +28°C° 0 mm 0 mps 724 mmHg 56%
    10:00 +31°C° 0 mm 0 mps 724 mmHg 49%
    11:00 +35°C° 0 mm 1 mps 724 mmHg 41%
    12:00 +35°C° 0 mm 1 mps 723 mmHg 40%
    13:00 +35°C° 0 mm 1 mps 722 mmHg 39%
    14:00 +35°C° 0 mm 1 mps 722 mmHg 37%
    15:00 +33°C° 0 mm 1 mps 722 mmHg 46%
    16:00 +31°C° 0 mm 1 mps 722 mmHg 54%
    17:00 +29°C° 0 mm 1 mps 722 mmHg 63%
    18:00 +28°C° 0.1 mm 1 mps 722 mmHg 67%
    19:00 +25°C° 0.1 mm 0 mps 723 mmHg 71%
    20:00 +24°C° 0.1 mm 0 mps 723 mmHg 75%
    21:00 +24°C° 0 mm 0 mps 723 mmHg 80%
    22:00 +25°C° 0 mm 1 mps 723 mmHg 85%
    23:00 +24°C° 0 mm 1 mps 723 mmHg 90%

    22 November, Thursday

    Time Temperature Precipitation Wind Pressure Humidity
    00:00 +24°C° 0.1 mm 1 mps 723 mmHg 92%
    01:00 +22°C° 0.1 mm 0 mps 722 mmHg 95%
    02:00 +21°C° 0.1 mm 0 mps 722 mmHg 98%
    03:00 +22°C° 0 mm 0 mps 722 mmHg 98%
    04:00 +24°C° 0 mm 1 mps 722 mmHg 97%
    05:00 +24°C° 0 mm 1 mps 723 mmHg 97%
    06:00 +24°C° 0 mm 1 mps 723 mmHg 95%
    07:00 +25°C° 0 mm 1 mps 724 mmHg 92%
    08:00 +26°C° 0 mm 1 mps 724 mmHg 90%
    09:00 +27°C° 0 mm 1 mps 724 mmHg 82%
    10:00 +29°C° 0 mm 1 mps 724 mmHg 73%
    11:00 +31°C° 0 mm 1 mps 724 mmHg 65%
    12:00 +32°C° 0 mm 1 mps 723 mmHg 59%
    13:00 +31°C° 0 mm 0 mps 722 mmHg 53%
    14:00 +32°C° 0 mm 0 mps 721 mmHg 47%
    15:00 +30°C° 0 mm 0 mps 721 mmHg 53%
    16:00 +29°C° 0 mm 0 mps 721 mmHg 60%
    17:00 +27°C° 0 mm 0 mps 721 mmHg 67%
    18:00 +26°C° 0 mm 0 mps 722 mmHg 71%
    19:00 +25°C° 0 mm 0 mps 722 mmHg 75%
    20:00 +23°C° 0 mm 0 mps 723 mmHg 80%
    21:00 +25°C° 0 mm 1 mps 723 mmHg 84%
    22:00 +24°C° 0 mm 1 mps 723 mmHg 89%
    23:00 +24°C° 0 mm 1 mps 722 mmHg 94%

    23 November, Friday

    Time Temperature Precipitation Wind Pressure Humidity
    00:00 +22°C° 0 mm 0 mps 722 mmHg 95%
    01:00 +22°C° 0 mm 0 mps 722 mmHg 96%
    02:00 +22°C° 0 mm 0 mps 722 mmHg 97%
    03:00 +22°C° 0 mm 0 mps 722 mmHg 96%
    04:00 +22°C° 0 mm 0 mps 722 mmHg 96%
    05:00 +22°C° 0 mm 0 mps 723 mmHg 95%
    06:00 +23°C° 0 mm 0 mps 723 mmHg 92%
    07:00 +24°C° 0 mm 0 mps 723 mmHg 89%
    08:00 +26°C° 0 mm 1 mps 724 mmHg 85%
    09:00 +29°C° 0 mm 1 mps 724 mmHg 75%
    10:00 +31°C° 0 mm 1 mps 723 mmHg 64%
    11:00 +33°C° 0 mm 1 mps 723 mmHg 53%
    12:00 +34°C° 0 mm 1 mps 722 mmHg 50%
    13:00 +32°C° 0 mm 0 mps 722 mmHg 46%
    14:00 +33°C° 0 mm 0 mps 721 mmHg 42%
    15:00 +31°C° 0 mm 0 mps 721 mmHg 50%
    16:00 +31°C° 0 mm 1 mps 721 mmHg 59%
    17:00 +29°C° 0 mm 1 mps 721 mmHg 67%
    18:00 +28°C° 0 mm 1 mps 721 mmHg 71%
    19:00 +25°C° 0 mm 0 mps 722 mmHg 76%
    20:00 +24°C° 0 mm 0 mps 722 mmHg 80%
    21:00 +23°C° 0 mm 0 mps 722 mmHg 83%
    22:00 +23°C° 0 mm 0 mps 722 mmHg 85%
    23:00 +23°C° 0 mm 0 mps 722 mmHg 88%
    Show more